User: anonymous   Login
Location: Carbonear
(47.7333°N, 53.2500°W)
Time: 08:39:10
(UTC+00:00)
Language:

FO-99 - Orbit

View from above orbital plane
View from above orbital plane
View from above satellite
View from above satellite

Ground track
Ground track

The orbit data is extracted from the following two-line orbital elements,

1 43937U 19003F   22329.82601237  .00016104  00000-0  46896-3 0  9994
2 43937  97.1137 357.1946 0016452 298.7667  61.1924 15.35342363214694
Epoch (UTC): 25 November 2022 19:49:27
Eccentricity: 0.0016452
inclination: 97.1137°
perigee height: 448 km
apogee height: 471 km
right ascension of ascending node: 357.1946°
argument of perigee: 298.7667°
revolutions per day: 15.35342363
mean anomaly at epoch: 61.1924°
orbit number at epoch: 21469

The dashed part of the orbit path shows where the satellite is in the earth's shadow,  

DLR